Zurück zum Katalog

SL-16 DEB

AktivLEO
NORAD 18417·DEBRIS·🇷🇺 Russia

Gestartet Mar 18, 1987 von Baikonur Cosmodrome

Loading…

Nächste Überflüge (nächste 24 Stunden)

TLE

AktuellSource: Space-Track

Epoche: Sep 14, 2026, 10:26 UTC

1 18417U 87027D   26257.43517751  .00000040  00000-0  74644-4 0  9993
2 18417  70.9994 167.8031 0200224 151.0616 328.8231 13.74671688979785

Verfolge SL-16 DEB in Echtzeit mit AllMySat

Download on the App Store